Heber, UT

11:33 AM MDT on May 20, 2018 (GMT -0600)
Heber

Weather History for K36U - June, 2013

Change the Weather History Date:

Monday, June 17, 2013

  Actual Average (KPVU) Record (KPVU)
Temperature  
Mean Temperature 62 °F -  
Max Temperature 87 °F 79 °F 95 °F (2012)
Min Temperature 37 °F 51 °F 37 °F (1998)
Degree Days  
Heating Degree Days 3    
Growing Degree Days 12 (Base 50)    
Moisture  
Dew Point 28 °F    
Average Humidity 36    
Maximum Humidity 81    
Minimum Humidity 6    
Precipitation  
Precipitation 0.00 in - - ()
Sea Level Pressure  
Sea Level Pressure 30.10 in    
Wind  
Wind Speed 3 mph (SW)    
Max Wind Speed 15 mph    
Max Gust Speed 23 mph    
Visibility 10 miles    
Events      
Averages and records for this station are not official NWS values.
T = Trace of Precipitation, MM = Missing Value Source: NWS Daily Summary

Daily Weather History Graph

Daily Weather History Graph

Search for Another Location

Airport or City:

Astronomy

Jun. 17, 2013 Rise Set
Actual Time 5:54 AM MDT 8:58 PM MDT
Civil Twilight 5:21 AM MDT 9:31 PM MDT
Nautical Twilight 4:39 AM MDT 10:14 PM MDT
Astronomical Twilight 3:49 AM MDT 11:04 PM MDT
Moon 2:40 PM MDT (6/17) 1:33 AM MDT (6/17)
Length of Visible Light 16h 10m
Length of Day
15h 03m
First Quarter, 61% of the Moon is Illuminated
Jun 17
First Quarter
Jun 23
Full
Jun 29
Last Quarter
Jul 8
New
Jul 15
First Quarter

Hourly Weather History & Observations

Time (MDT) Temp. Windchill Dew Point Humidity Pressure Visibility Wind Dir Wind Speed Gust Speed Precip Events Conditions
12:15 AM 46.4 °F 45.2 °F 33.8 °F 62% 30.11 in 10.0 mi SE 3.5 mph - N/A   Clear
12:35 AM 46.4 °F - 32.0 °F 57% 30.11 in 10.0 mi Calm Calm - N/A   Clear
12:55 AM 46.4 °F - 32.0 °F 57% 30.12 in 10.0 mi Calm Calm - N/A   Clear
1:15 AM 42.8 °F 41.1 °F 33.8 °F 70% 30.12 in 10.0 mi SE 3.5 mph - N/A   Clear
1:35 AM 44.6 °F 43.1 °F 32.0 °F 61% 30.12 in 10.0 mi SE 3.5 mph - N/A   Clear
1:55 AM 46.4 °F 45.2 °F 30.2 °F 53% 30.12 in 10.0 mi SSE 3.5 mph - N/A   Clear
2:15 AM 44.6 °F - 30.2 °F 57% 30.13 in 10.0 mi Calm Calm - N/A   Clear
2:35 AM 42.8 °F 41.1 °F 32.0 °F 66% 30.13 in 10.0 mi South 3.5 mph - N/A   Clear
2:55 AM 44.6 °F 43.1 °F 28.4 °F 53% 30.14 in 10.0 mi SE 3.5 mph - N/A   Clear
3:15 AM 41.0 °F 39.0 °F 32.0 °F 70% 30.14 in 10.0 mi SE 3.5 mph - N/A   Clear
3:35 AM 44.6 °F - 28.4 °F 53% 30.14 in 10.0 mi Calm Calm - N/A   Clear
3:55 AM 46.4 °F - 26.6 °F 46% 30.14 in 10.0 mi Calm Calm - N/A   Clear
4:15 AM 42.8 °F - 30.2 °F 61% 30.15 in 10.0 mi Calm Calm - N/A   Clear
4:35 AM 41.0 °F - 32.0 °F 70% 30.15 in 10.0 mi Calm Calm - N/A   Clear
4:55 AM 41.0 °F - 32.0 °F 70% 30.16 in 10.0 mi Calm Calm - N/A   Clear
5:15 AM 37.4 °F 33.8 °F 32.0 °F 81% 30.16 in 10.0 mi ESE 4.6 mph - N/A   Clear
5:35 AM 37.4 °F 33.8 °F 32.0 °F 81% 30.16 in 10.0 mi ESE 4.6 mph - N/A   Clear
5:55 AM 37.4 °F - 32.0 °F 81% 30.16 in 10.0 mi Calm Calm - N/A   Clear
6:15 AM 39.2 °F - 32.0 °F 75% 30.16 in 10.0 mi Calm Calm - N/A   Clear
6:35 AM 37.4 °F - 32.0 °F 81% 30.17 in 10.0 mi Calm Calm - N/A   Clear
6:55 AM 41.0 °F - 33.8 °F 76% 30.18 in 10.0 mi Calm Calm - N/A   Clear
7:15 AM 44.6 °F - 33.8 °F 66% 30.18 in 10.0 mi Calm Calm - N/A   Clear
7:35 AM 48.2 °F - 32.0 °F 54% 30.18 in 10.0 mi Calm Calm - N/A   Clear
7:55 AM 50.0 °F - 33.8 °F 54% 30.18 in 10.0 mi Calm Calm - N/A   Clear
8:15 AM 51.8 °F - 32.0 °F 47% 30.18 in 10.0 mi Calm Calm - N/A   Clear
8:35 AM 53.6 °F - 28.4 °F 38% 30.18 in 10.0 mi Calm Calm - N/A   Clear
8:55 AM 55.4 °F - 28.4 °F 36% 30.18 in 10.0 mi Calm Calm - N/A   Clear
9:15 AM 57.2 °F - 30.2 °F 36% 30.18 in 10.0 mi Calm Calm - N/A   Clear
9:35 AM 59.0 °F - 30.2 °F 34% 30.18 in 10.0 mi Calm Calm - N/A   Clear
9:55 AM 60.8 °F - 30.2 °F 31% 30.17 in 10.0 mi Calm Calm - N/A   Clear
10:15 AM 64.4 °F - 26.6 °F 24% 30.17 in 10.0 mi Calm Calm - N/A   Clear
10:35 AM 66.2 °F - 24.8 °F 21% 30.16 in 10.0 mi Calm Calm - N/A   Clear
10:55 AM 69.8 °F - 28.4 °F 21% 30.15 in 10.0 mi WNW 3.5 mph - N/A   Clear
11:15 AM 71.6 °F - 24.8 °F 17% 30.14 in 10.0 mi Calm Calm - N/A   Clear
11:35 AM 73.4 °F - 23.0 °F 15% 30.14 in 10.0 mi WNW 3.5 mph - N/A   Clear
11:55 AM 75.2 °F - 28.4 °F 18% 30.13 in 10.0 mi WNW 3.5 mph - N/A   Clear
12:15 PM 77.0 °F - 32.0 °F 19% 30.12 in 10.0 mi Calm Calm - N/A   Clear
12:35 PM 78.8 °F - 28.4 °F 16% 30.12 in 10.0 mi West 3.5 mph - N/A   Clear
12:55 PM 80.6 °F - 28.4 °F 15% 30.11 in 10.0 mi West 3.5 mph - N/A   Clear
1:15 PM 86.0 °F - 23.0 °F 10% 30.10 in 10.0 mi WNW 8.1 mph - N/A   Clear
1:35 PM 87.8 °F - 19.4 °F 8% 30.09 in 10.0 mi West 12.7 mph - N/A   Clear
1:55 PM 87.8 °F - 19.4 °F 8% 30.09 in 10.0 mi WSW 13.8 mph - N/A   Clear
2:15 PM 87.8 °F - 12.2 °F 6% 30.07 in 10.0 mi WSW 9.2 mph 17.3 mph N/A   Clear
2:35 PM 87.8 °F - 15.8 °F 7% 30.07 in 10.0 mi West 11.5 mph 16.1 mph N/A   Clear
2:55 PM 87.8 °F - 17.6 °F 8% 30.07 in 10.0 mi West 9.2 mph 16.1 mph N/A   Clear
3:15 PM 87.8 °F - 19.4 °F 8% 30.06 in 10.0 mi SW 10.4 mph 20.7 mph N/A   Clear
3:35 PM 87.8 °F - 21.2 °F 9% 30.05 in 10.0 mi SW 10.4 mph 19.6 mph N/A   Clear
3:55 PM 87.8 °F - 21.2 °F 9% 30.04 in 10.0 mi WSW 13.8 mph 23.0 mph N/A   Clear
4:15 PM 87.8 °F - 23.0 °F 9% 30.04 in 10.0 mi SW 13.8 mph 19.6 mph N/A   Clear
4:35 PM 87.8 °F - 19.4 °F 8% 30.03 in 10.0 mi SW 10.4 mph 17.3 mph N/A   Clear
4:55 PM 87.8 °F - 19.4 °F 8% 30.03 in 10.0 mi WSW 13.8 mph - N/A   Clear
5:15 PM 87.8 °F - 17.6 °F 8% 30.03 in 10.0 mi West 11.5 mph 21.9 mph N/A   Clear
5:35 PM 87.8 °F - 19.4 °F 8% 30.02 in 10.0 mi WSW 12.7 mph 19.6 mph N/A   Clear
5:55 PM 86.0 °F - 21.2 °F 9% 30.02 in 10.0 mi WSW 15.0 mph 20.7 mph N/A   Clear
6:15 PM 87.8 °F - 17.6 °F 8% 30.01 in 10.0 mi WSW 13.8 mph 17.3 mph N/A   Clear
6:35 PM 86.0 °F - 19.4 °F 9% 30.01 in 10.0 mi WSW 10.4 mph - N/A   Clear
6:55 PM 86.0 °F - 19.4 °F 9% 30.01 in 10.0 mi SW 12.7 mph 16.1 mph N/A   Clear
7:15 PM 82.4 °F - 23.0 °F 11% 30.01 in 10.0 mi WSW 8.1 mph - N/A   Clear
7:35 PM 80.6 °F - 26.6 °F 14% 30.01 in 10.0 mi SW 5.8 mph - N/A   Clear
7:55 PM 80.6 °F - 28.4 °F 15% 30.01 in 10.0 mi WSW 5.8 mph - N/A   Clear
8:15 PM 77.0 °F - 30.2 °F 18% 30.01 in 10.0 mi Calm Calm - N/A   Clear
8:35 PM 73.4 °F - 28.4 °F 19% 30.01 in 10.0 mi Calm Calm - N/A   Clear
8:55 PM 69.8 °F - 30.2 °F 23% 30.01 in 10.0 mi Calm Calm - N/A   Clear
9:15 PM 60.8 °F - 33.8 °F 36% 30.02 in 10.0 mi NE 4.6 mph - N/A   Clear
9:35 PM 59.0 °F - 32.0 °F 36% 30.02 in 10.0 mi East 4.6 mph - N/A   Clear
9:55 PM 55.4 °F - 33.8 °F 44% 30.04 in 10.0 mi East 3.5 mph - N/A   Clear
10:15 PM 55.4 °F - 33.8 °F 44% 30.05 in 10.0 mi Calm Calm - N/A   Clear
10:35 PM 55.4 °F - 30.2 °F 38% 30.05 in 10.0 mi Calm Calm - N/A   Clear
10:55 PM 51.8 °F - 33.8 °F 50% 30.05 in 10.0 mi Calm Calm - N/A   Clear
11:15 PM 51.8 °F - 32.0 °F 47% 30.05 in 10.0 mi SSE 3.5 mph - N/A   Clear
11:35 PM 48.2 °F - 33.8 °F 58% 30.05 in 10.0 mi SSE 4.6 mph - N/A   Clear
11:55 PM 48.2 °F - 33.8 °F 58% 30.05 in 10.0 mi Calm Calm - N/A   Clear